Grasslands, Zimbabwe

10:48 AM CAT on February 26, 2017 (GMT +0200)
Harare International | | Change Station

Elev 4931 ft 17.92 °S, 31.13 °E | Updated 48 minutes ago

Rain
Rain
77 °F
Feels Like 77 °F
N
12
Wind Variable Wind from NE

Today
High -- | Low -- °F
--% Chance of Precip.
Yesterday
High -- | Low -- °F
Precip. -- in
Pressure 30.15 in
Visibility 6.2 miles
Clouds Scattered Clouds 2000 ft
Mostly Cloudy 30000 ft
Dew Point 64 °F
Humidity 65%
Rainfall 0.00 in
Snow Depth Not available.
5:51 AM 6:21 PM
Waning Crescent, 0% visible
METAR FVHA 260800Z 05010KT 020V100 9999 SCT020 BKN300 25/18 Q1021 NOSIG
Pressure 30.15 in
Visibility 6.2 miles
Clouds Scattered Clouds 2000 ft
Mostly Cloudy 30000 ft
Dew Point 64 °F
Humidity 65%
Rainfall 0.00 in
Snow Depth Not available.
5:51 AM 6:21 PM
Waning Crescent, 0% visible
METAR FVHA 260800Z 05010KT 020V100 9999 SCT020 BKN300 25/18 Q1021 NOSIG

Get Your Daily Forecast Email!

Thanks for signing up!

Be on the lookout for a verification email in your inbox.

You'll start receiving the daily forecast at 8 AM.

×

10-Day Weather Forecast

No radar image for this location.
×

Almanac

Astronomy

Feb. 26, 2017 Rise Set
Actual Time
Civil Twilight
Nautical Twilight
Astronomical Twilight
Moon
Length of Visible Light
Length of Day
Tomorrow will be .
, % of the Moon is Illuminated

Today's Extremes

Country Highs Country Lows

Community

WunderPhotos

Upload Photos

1,962,540 photos uploaded!

WunderBlog® & News

Nearby

Air Quality

  Air Quality AQ Index Pollutant
Not available.

Snow Depth

Station Depth Elevation

Earthquake Activity

City Distance Mag. Time & Date
Minimum magnitude displayed is 2.5.

Coastal Water Temperatures

Place Temperature

Stations

Nearby Weather Stations

Station Location Temp. Windchill Dew Point Humidity Wind Precip. Elev Updated Type